#timestamp,LO_Frequency,Hit,StdDev 
1594893615.6,286046998.8,N
1594893635.4,286046998.2,N
1594893655.2,286047002.8,N
1594893675.1,286047000.0,N
1594893676.0,286047000.0,N
1594893695.8,286046999.8,N
1594893715.6,286047000.5,N
1594893735.5,286046998.3,N
1594893755.3,286046998.9,N
1594893775.2,286046998.3,N
1594893795.0,286046998.5,N
1594893795.9,286046998.5,N
1594893815.8,286046998.6,N
1594893835.6,286046999.4,N
1594893855.4,286046998.8,N
1594893875.3,286046999.4,N
1594893895.1,286046999.5,N
1594893915.8,286046998.9,N
1594893935.7,286046998.9,N
1594893955.5,286046998.9,N
1594893975.4,286046996.5,N
1594893995.2,286046996.8,N
1594894015.0,286046999.0,N
1594894016.0,286046999.0,N
1594894035.8,286046999.6,N
1594894055.6,286046997.8,N
1594894075.5,286046996.7,Y
1594894095.3,286046996.6,P
1594894115.1,286046998.2,N
1594894135.9,286046996.8,P
1594894155.7,286046997.5,N
1594894175.6,286046997.9,N
1594894195.4,286046996.8,Y
1594894215.2,286047000.6,P
1594894235.1,286047000.2,N
1594894236.0,286047000.2,N
1594894255.8,286047000.8,N
1594894275.7,286046998.3,N
1594894295.5,286047002.5,N
1594894315.3,286046999.9,N
1594894335.2,286047002.4,N
1594894355.0,286047002.1,N
1594894355.9,286047002.1,N
1594894375.8,286047003.2,N
1594894395.6,286047001.3,N
1594894415.4,286047002.3,N
1594894435.3,286047000.7,N
1594894455.1,286047000.4,N
1594894475.9,286046999.9,N
1594894495.7,286047002.1,N
1594894515.5,286047001.7,N
1594894535.4,286047004.2,N
1594894555.2,286047002.9,N
1594894575.0,286047004.0,N
1594894576.0,286047004.0,N
1594894595.8,286047004.4,N
1594894615.6,286047001.9,N
1594894635.5,286047001.4,N
1594894655.3,286047004.3,N
1594894675.1,286047001.5,N
1594894695.9,286047002.5,N
1594894715.7,286047002.6,N
1594894735.6,286047002.3,N
1594894755.4,286047002.2,N
1594894775.2,286047002.3,N
1594894795.1,286047000.2,N
1594894796.0,286047000.2,N
1594894815.8,286047000.4,N
1594894835.7,286046999.7,N
1594894855.5,286047002.2,N
1594894875.3,286047002.1,N
1594894895.2,286047002.2,N
1594894915.0,286047002.5,N
1594894915.9,286047002.5,N
1594894935.8,286047001.9,N
1594894955.6,286047004.4,Y
1594894975.4,286046998.5,P
1594894995.3,286046998.4,N
1594895015.1,286047001.1,N
1594895035.9,286046999.2,N
1594895055.7,286046999.0,N
1594895075.5,286046997.3,N
1594895095.4,286046996.7,N
1594895115.2,286046999.2,N
1594895135.0,286046998.8,N
1594895135.9,286046998.8,N
1594895155.8,286046998.8,N
1594895175.6,286046999.1,N
1594895195.5,286046996.9,N
1594895215.3,286046997.3,N
1594895235.1,286046999.1,N
1594895255.9,286046999.5,N
1594895275.7,286046996.8,N
1594895295.6,286046996.7,N
1594895315.4,286046997.2,N
1594895335.2,286047000.8,N
1594895355.1,286046998.5,N
1594895356.0,286046998.5,N
1594895375.8,286046999.0,N
1594895395.6,286046998.9,N
1594895415.5,286046999.1,N
1594895435.3,286046999.5,N
1594895455.2,286046997.8,N
1594895475.9,286046995.3,Y
1594895495.8,286047002.2,P
1594895515.6,286047001.8,N
1594895535.4,286047000.0,N
1594895555.3,286047002.8,N
1594895575.1,286047000.9,N
1594895595.8,286047000.9,N
1594895615.7,286047001.1,N
1594895635.5,286047000.9,N
1594895655.4,286047000.9,N
1594895675.2,286047000.4,N
1594895695.0,286047001.1,N
1594895695.9,286047001.1,N
1594895715.8,286047001.1,N
1594895735.6,286047000.5,N
1594895755.5,286047000.7,N
1594895775.3,286047001.0,N
1594895795.1,286046998.5,N
1594895815.9,286046998.5,N
1594895835.7,286046998.8,N
1594895855.5,286047001.1,N
1594895875.4,286046998.7,N
1594895895.2,286046998.4,N
1594895915.1,286046998.9,N
1594895916.0,286046998.9,N
1594895935.8,286046998.9,N
1594895955.6,286047000.5,N
1594895975.5,286046999.9,N
1594895995.3,286046998.5,N
1594896015.2,286046998.6,N
1594896035.9,286046999.5,N
1594896055.7,286047000.0,N
1594896075.6,286047001.7,N
1594896095.4,286047004.9,Y
1594896115.3,286047006.2,P
1594896135.1,286047009.1,N
1594896136.0,286047009.1,N
1594896155.8,286047008.9,N
1594896175.7,286047010.4,N
1594896195.5,286047010.6,Y
1594896215.4,286046998.3,P
1594896235.2,286046998.2,N
1594896255.0,286046999.9,N
1594896255.9,286046999.9,N
1594896275.8,286047000.9,N
1594896295.6,286047000.4,N
1594896315.5,286046998.5,N
1594896335.3,286047000.8,N
1594896355.1,286046999.9,N
1594896375.9,286047000.5,N
1594896395.7,286046997.2,N
1594896415.5,286046998.8,N
1594896435.4,286046999.2,N
1594896455.2,286046997.1,N
1594896475.1,286046994.9,N
1594896476.0,286046994.9,N
1594896495.8,286046997.0,N
1594896515.6,286046997.8,N
1594896535.5,286046997.1,N
1594896555.3,286046996.9,N
1594896575.2,286046995.3,N
1594896595.9,286046999.5,N
1594896615.7,286047001.0,N
1594896635.6,286046998.6,N
1594896655.4,286046999.6,N
1594896675.2,286046999.2,N
1594896695.1,286046999.1,N
1594896696.0,286046999.1,N
1594896715.8,286046998.7,N
1594896735.7,286046998.5,N
1594896755.5,286046997.4,N
1594896775.3,286047001.1,N
1594896795.2,286047000.4,N
1594896815.0,286046998.8,N
1594896815.9,286046998.8,N
1594896835.8,286046997.9,N
1594896855.6,286046996.9,N
1594896875.4,286046996.7,N
1594896895.3,286046999.6,N
1594896915.1,286046997.2,N
1594896935.9,286046995.5,N
1594896955.7,286046995.1,Y
1594896975.5,286046996.5,P
1594896995.4,286046997.7,N
1594897015.2,286046995.8,P
1594897035.1,286046995.4,Y
1594897036.0,286046995.4,P
1594897055.8,286046998.3,N
1594897075.7,286047000.3,N
1594897095.5,286047000.0,N
1594897115.3,286047002.2,N
1594897135.2,286047004.2,N
1594897155.0,286047004.4,N
1594897155.9,286047004.4,N
1594897175.7,286047004.2,N
1594897195.6,286047004.0,N
